Location: Trebic
(49.2170°N, 15.8830°E)
Time: 07:11:37
(UTC+02:00)

Transit 4A - Pass Details

Date: 28 July 2019
Orbit: 863 x 981 km, 66.8° (Epoch: 20 August)

Event Time Altitude Azimuth Distance (km) Brightness Sun altitude
Exits shadow 23:13:35 15° 107° (ESE) 2,359 9.6 -17.7°
Maximum altitude 23:14:06 15° 102° (ESE) 2,352 9.6 -17.7°
Drops below altitude 10° 23:17:37 10° 68° (ENE) 2,739 10.3 -18.0°
Sets 23:21:18 0° 48° (NE) 3,690 11.3 -18.2°
